This is the latest recevied weather packets stored in our database for station/object DB2GS-10. If no packets are shown the sender has not sent any weather packets the latest 1 day(s).
| Time | Temp. | Humidity | Pressure | Rain* | Wind** | Luminosity | Snow |
|---|---|---|---|---|---|---|---|
| 1778044057 | 20.56° C | 44% | 1010.5 hPa | - | - | - | - |
| 1778043157 | 20.56° C | 44% | 1010.5 hPa | - | - | - | - |
| 1778042257 | 20.56° C | 44% | 1010.7 hPa | - | - | - | - |
| 1778041357 | 20.56° C | 44% | 1010.7 hPa | - | - | - | - |
| 1778040456 | 20.56° C | 44% | 1010.7 hPa | - | - | - | - |
| 1778038656 | 20.56° C | 44% | 1010.7 hPa | - | - | - | - |
| 1778037756 | 21.11° C | 44% | 1010.7 hPa | - | - | - | - |
| 1778036856 | 20.56° C | 44% | 1010.8 hPa | - | - | - | - |
| 1778035956 | 21.11° C | 44% | 1011 hPa | - | - | - | - |
| 1778035056 | 21.11° C | 44% | 1011.2 hPa | - | - | - | - |
| 1778033255 | 21.11° C | 44% | 1011.4 hPa | - | - | - | - |
| 1778032355 | 21.11° C | 44% | 1011.4 hPa | - | - | - | - |
| 1778031455 | 21.11° C | 44% | 1011.4 hPa | - | - | - | - |
| 1778030555 | 21.11° C | 44% | 1011.3 hPa | - | - | - | - |
| 1778029655 | 21.11° C | 44% | 1011.5 hPa | - | - | - | - |
| 1778028755 | 21.11° C | 44% | 1011.4 hPa | - | - | - | - |
| 1778027855 | 21.11° C | 44% | 1011.5 hPa | - | - | - | - |
| 1778023354 | 21.67° C | 44% | 1012.2 hPa | - | - | - | - |
| 1778022454 | 21.67° C | 44% | 1012.3 hPa | - | - | - | - |
| 1778016153 | 21.67° C | 46% | 1012.4 hPa | - | - | - | - |
| 1778015253 | 22.22° C | 45% | 1012.3 hPa | - | - | - | - |
| 1778008951 | 21.67° C | 45% | 1011.8 hPa | - | - | - | - |
| 1778008051 | 21.67° C | 45% | 1011.8 hPa | - | - | - | - |
| 1778004457 | 21.11° C | 46% | 1011.7 hPa | - | - | - | - |
| 1778002657 | 21.11° C | 46% | 1011.5 hPa | - | - | - | - |
* Rain since midnight (hover to see other rain measurements)
** Current wind speed in m/s (hover to see current wind gust speed)